This demonstration page uses our WeatherBlox Daily Observations layout. Learn more.

Left ArrowRight Arrow

Hourly Observations for July 26, 2022

Temp ( °F °C ) Dew Point ( °F °C ) Humidity (%) Winds ( mph kmh ) Pressure ( in mb ) Visibility ( mi km ) Precip ( " mm )
12:59 am 00:59 Mostly Cloudy 81 27.2 72 22.2 74 74 SSW 9 15 30.03 1017 10 16 0.00 0.00
1:59 am 01:59 Mostly Cloudy 81 27.2 72 22.2 74 74 SW 8 13 30.03 1017 10 16 0.00 0.00
2:59 am 02:59 Mostly Cloudy 81 27.2 72 22.2 74 74 SW 10 17 30.04 1017 10 16 0.00 0.00
3:59 am 03:59 Mostly Cloudy 81 27.2 72 22.2 74 74 SW 9 15 30.03 1017 10 16 0.00 0.00
4:59 am 04:59 Mostly Cloudy 81 27.2 72 22.2 74 74 SSW 8 13 30.04 1017 10 16 0.00 0.00
5:59 am 05:59 Mostly Cloudy 79 26.1 72 22.2 79 79 SW 9 15 30.04 1017 10 16 0.00 0.00
6:59 am 06:59 Mostly Cloudy 79 26.1 74 23.3 85 85 SW 10 17 30.05 1018 9 14 0.00 0.00
7:59 am 07:59 Mostly Cloudy 81 27.2 74 23.3 79 79 SW 13 20 30.06 1018 10 16 0.00 0.00
8:59 am 08:59 Mostly Cloudy 83 28.3 74 23.3 74 74 SW 9 15 30.06 1018 10 16 0.00 0.00
9:59 am 09:59 Mostly Cloudy 85 29.4 75 23.9 72 72 W 17 28 30.06 1018 10 16 0.00 0.00
10:59 am 10:59 Mostly Cloudy 88 31.1 75 23.9 66 66 WSW 10 17 30.05 1018 10 16 0.00 0.00
11:59 am 11:59 Mostly Cloudy 88 31.1 75 23.9 66 66 WSW 12 19 30.06 1018 10 16 0.00 0.00
12:59 pm 12:59 Cloudy 86 30 75 23.9 70 70 W 16 26 30.05 1018 9 14 0.00 0.00
1:19 pm 13:19 Cloudy with Thunderstorms 86 30 75 23.9 70 70 W 17 28 30.04 1017 10 16 0.00 0.00
1:59 pm 13:59 Mostly Cloudy 82 27.8 75 23.9 79 79 WSW 8 13 30.02 1017 10 16 0.00 0.00
2:59 pm 14:59 Mostly Cloudy 84 28.9 74 23.3 72 72 W 8 13 30.00 1016 10 16 0.00 0.00
3:27 pm 15:27 Cloudy with Thunderstorms 84 28.9 74 23.3 72 72 SW 12 19 29.99 1016 10 16 0.00 0.00
3:42 pm 15:42 Cloudy with Strong Thunderstorms 81 27.2 74 23.3 79 79 WSW 22 35 30.04 1017 1 1 0.10 2.54
3:59 pm 15:59 Cloudy with Strong Thunderstorms 79 26.1 74 23.3 85 85 WSW 14 22 30.04 1017 1 1 0.48 12.19
4:20 pm 16:20 Mostly Cloudy with Thunderstorms 79 26.1 74 23.3 85 85 SSE 6 9 30.03 1017 5 8 0.05 1.27
4:59 pm 16:59 Mostly Cloudy with Thunderstorms 79 26.1 74 23.3 85 85 S 6 9 30.03 1017 5 8 0.07 1.78
5:13 pm 17:13 Mostly Cloudy 77 25 74 23.3 90 90 SSE 3 6 30.02 1017 8 13 0.00 0.00
5:49 pm 17:49 Mostly Cloudy with Thunderstorms 77 25 74 23.3 90 90 S 7 11 30.02 1017 10 16 0.00 0.00
5:59 pm 17:59 Mostly Cloudy with Thunderstorms 77 25 74 23.3 90 90 SW 5 7 30.04 1017 6 10 0.00 0.00
6:59 pm 18:59 Mostly Cloudy with Thunderstorms 77 25 74 23.3 90 90 S 5 7 30.04 1017 6 10 0.07 1.78
7:47 pm 19:47 Mostly Cloudy with Thunderstorms 77 25 74 23.3 90 90 SSE 5 7 30.04 1017 5 8 0.01 0.25
7:59 pm 19:59 Mostly Cloudy with Light Rain 77 25 74 23.3 90 90 S 7 11 30.04 1017 6 10 0.02 0.51
8:59 pm 20:59 Mostly Cloudy 77 25 76 24.4 96 96 SSW 7 11 30.03 1017 8 13 0.00 0.00
9:59 pm 21:59 Mostly Cloudy with Light Rain 77 25 76 24.4 96 96 SW 8 13 30.03 1017 6 10 0.01 0.25
10:59 pm 22:59 Mostly Cloudy 77 25 76 24.4 96 96 SW 9 15 30.03 1017 10 16 0.01 0.25
11:59 pm 23:59 Mostly Cloudy 75 23.9 74 23.3 96 96 SSW 9 15 30.02 1017 10 16 0.00 0.00

Powered by AerisWeather